Pella, IA

7:07 AM CDT on July 23, 2017 (GMT -0500)
Pella Municipal

Weather History for KPEA - February, 2014

Change the Weather History Date:

Wednesday, February 19, 2014

  Actual Average (KOXV) Record (KOXV)
Temperature  
Mean Temperature 39 °F -  
Max Temperature 49 °F 38 °F 71 °F (2017)
Min Temperature 29 °F 21 °F -7 °F (1958)
Degree Days  
Heating Degree Days 26    
Moisture  
Dew Point 32 °F    
Average Humidity 79    
Maximum Humidity 99    
Minimum Humidity 52    
Precipitation  
Precipitation 0.00 in - - ()
Sea Level Pressure  
Sea Level Pressure 29.88 in    
Wind  
Wind Speed 3 mph (WNW)    
Max Wind Speed 10 mph    
Max Gust Speed -    
Visibility 10 miles    
Events Rain    
Averages and records for this station are not official NWS values.
T = Trace of Precipitation, MM = Missing Value Source: NWS Daily Summary

Daily Weather History Graph

Daily Weather History Graph

Search for Another Location

Airport or City:

Trip Planner

Search our weather history database for the weather conditions in past years. The results will help you decide how hot, cold, wet, or windy it might be!

Date:

Astronomy

Feb. 19, 2014 Rise Set
Actual Time 7:01 AM CST 5:50 PM CST
Civil Twilight 6:33 AM CST 6:18 PM CST
Nautical Twilight 6:00 AM CST 6:51 PM CST
Astronomical Twilight 5:28 AM CST 7:23 PM CST
Moon 10:48 PM CST (2/19) 9:03 AM CST (2/19)
Length of Visible Light 11h 45m
Length of Day
10h 49m
Waning Gibbous, 79% of the Moon is Illuminated
Feb 19
Waning Gibbous
Feb 22
Last Quarter
Mar 1
New
Mar 8
First Quarter
Mar 16
Full

Hourly Weather History & Observations

Time (CST) Temp. Windchill Dew Point Humidity Pressure Visibility Wind Dir Wind Speed Gust Speed Precip Events Conditions
12:15 AM 36.7 °F 32.0 °F 32.0 °F 83% 29.86 in 10.0 mi WNW 5.8 mph - N/A   Clear
12:35 AM 36.9 °F - 32.0 °F 83% 29.86 in 10.0 mi Calm Calm - N/A   Clear
12:55 AM 36.5 °F - 32.0 °F 84% 29.87 in 10.0 mi Calm Calm - N/A   Clear
1:15 AM 36.0 °F 28.5 °F 32.0 °F 86% 29.87 in 10.0 mi WNW 10.4 mph - N/A   Clear
1:35 AM 36.0 °F 29.0 °F 32.0 °F 86% 29.88 in 10.0 mi WNW 9.2 mph - N/A   Clear
1:55 AM 35.6 °F 28.6 °F 32.0 °F 87% 29.89 in 10.0 mi WNW 9.2 mph - N/A   Clear
2:15 AM 35.2 °F 29.5 °F 31.8 °F 87% 29.89 in 10.0 mi West 6.9 mph - N/A   Clear
2:35 AM 35.2 °F 28.8 °F 32.0 °F 88% 29.89 in 10.0 mi WNW 8.1 mph - N/A   Clear
2:55 AM 34.9 °F 29.0 °F 31.6 °F 88% 29.89 in 10.0 mi WNW 6.9 mph - N/A   Clear
3:15 AM 34.2 °F 30.0 °F 31.5 °F 90% 29.89 in 10.0 mi WNW 4.6 mph - N/A   Clear
3:35 AM 33.1 °F - 30.7 °F 91% 29.90 in 10.0 mi Calm Calm - N/A   Clear
3:55 AM 32.5 °F 27.1 °F 30.4 °F 92% 29.90 in 10.0 mi West 5.8 mph - N/A   Clear
4:15 AM 32.2 °F - 30.7 °F 94% 29.92 in 10.0 mi Calm Calm - N/A   Clear
4:35 AM 32.0 °F 24.8 °F 30.4 °F 94% 29.91 in 10.0 mi West 8.1 mph - N/A   Clear
4:55 AM 32.0 °F - 30.2 °F 93% 29.91 in 10.0 mi Calm Calm - N/A   Clear
5:15 AM 31.5 °F 26.8 °F 30.0 °F 94% 29.91 in 10.0 mi WNW 4.6 mph - N/A   Clear
5:35 AM 31.3 °F 25.6 °F 30.6 °F 97% 29.91 in 10.0 mi WNW 5.8 mph - N/A   Clear
5:55 AM 31.6 °F - 30.7 °F 96% 29.91 in 10.0 mi Calm Calm - N/A   Clear
6:15 AM 30.7 °F - 29.8 °F 96% 29.92 in 10.0 mi Calm Calm - N/A   Clear
6:35 AM 30.7 °F - 30.0 °F 97% 29.93 in 10.0 mi Calm Calm - N/A   Clear
6:55 AM 29.8 °F - 29.3 °F 98% 29.93 in 10.0 mi Calm Calm - N/A   Clear
7:15 AM 30.0 °F - 29.7 °F 99% 29.93 in 10.0 mi Calm Calm - N/A   Clear
7:35 AM 30.9 °F - 30.4 °F 98% 29.93 in 10.0 mi Calm Calm - N/A   Clear
7:55 AM 31.3 °F - 30.9 °F 99% 29.94 in 10.0 mi Calm Calm - N/A   Clear
8:15 AM 32.0 °F - 31.6 °F 99% 29.94 in 10.0 mi Calm Calm - N/A   Clear
8:35 AM 33.6 °F - 32.0 °F 94% 29.95 in 10.0 mi Calm Calm - N/A   Clear
8:55 AM 35.2 °F - 32.0 °F 88% 29.96 in 10.0 mi Calm Calm - N/A   Clear
9:15 AM 35.6 °F - 32.0 °F 87% 29.96 in 10.0 mi Calm Calm - N/A   Clear
9:35 AM 36.5 °F 31.0 °F 32.0 °F 84% 29.96 in 10.0 mi West 6.9 mph - N/A   Clear
9:55 AM 37.4 °F - 32.0 °F 81% 29.96 in 10.0 mi Calm Calm - N/A   Clear
10:15 AM 39.2 °F - 33.1 °F 79% 29.96 in 10.0 mi Calm Calm - N/A   Clear
10:35 AM 41.4 °F - 33.8 °F 74% 29.96 in 10.0 mi Calm Calm - N/A   Clear
10:55 AM 42.4 °F - 33.3 °F 70% 29.96 in 10.0 mi Calm Calm - N/A   Clear
11:15 AM 44.1 °F - 34.0 °F 68% 29.96 in 10.0 mi Calm Calm - N/A   Clear
11:35 AM 45.0 °F - 33.3 °F 64% 29.96 in 10.0 mi Calm Calm - N/A   Clear
11:55 AM 46.6 °F - 34.7 °F 63% 29.96 in 10.0 mi Calm Calm - N/A   Clear
12:15 PM 47.3 °F - 33.8 °F 59% 29.95 in 10.0 mi Calm Calm - N/A   Clear
12:35 PM 48.0 °F - 34.9 °F 60% 29.94 in 10.0 mi Calm Calm - N/A   Clear
12:55 PM 47.8 °F - 32.7 °F 56% 29.93 in 10.0 mi Calm Calm - N/A   Clear
1:15 PM 48.2 °F - 32.7 °F 55% 29.92 in 10.0 mi Calm Calm - N/A   Clear
1:35 PM 49.3 °F - 32.9 °F 53% 29.92 in 10.0 mi Calm Calm - N/A   Clear
1:55 PM 49.3 °F - 32.5 °F 53% 29.92 in 10.0 mi Calm Calm - N/A   Clear
2:15 PM 48.2 °F - 31.5 °F 52% 29.91 in 10.0 mi Calm Calm - N/A   Clear
2:35 PM 47.7 °F - 31.6 °F 54% 29.91 in 10.0 mi Calm Calm - N/A   Clear
2:55 PM 47.7 °F - 31.1 °F 53% 29.89 in 10.0 mi Calm Calm - N/A   Clear
3:15 PM 46.6 °F - 31.8 °F 56% 29.89 in 10.0 mi Calm Calm - N/A   Clear
3:35 PM 45.9 °F - 32.0 °F 58% 29.88 in 10.0 mi Calm Calm - N/A   Clear
3:55 PM 45.5 °F - 32.0 °F 59% 29.87 in 10.0 mi Calm Calm - N/A   Clear
4:15 PM 44.6 °F - 32.0 °F 61% 29.86 in 10.0 mi Calm Calm - N/A   Clear
4:35 PM 44.2 °F - 31.8 °F 62% 29.86 in 10.0 mi Calm Calm - N/A   Clear
4:55 PM 43.7 °F - 30.9 °F 61% 29.85 in 10.0 mi Calm Calm - N/A   Clear
5:15 PM 42.8 °F - 30.7 °F 62% 29.85 in 10.0 mi Calm Calm - N/A   Clear
5:35 PM 42.1 °F - 30.4 °F 63% 29.85 in 10.0 mi Calm Calm - N/A   Clear
5:55 PM 41.2 °F - 30.7 °F 66% 29.83 in 10.0 mi Calm Calm - N/A   Clear
6:15 PM 40.3 °F - 31.1 °F 70% 29.81 in 10.0 mi Calm Calm - N/A   Clear
6:55 PM 40.1 °F - 31.3 °F 71% 29.83 in 10.0 mi Calm Calm - N/A   Clear
7:35 PM 39.6 °F 37.4 °F 32.0 °F 74% 29.80 in 10.0 mi SE 3.5 mph - N/A   Clear
7:55 PM 39.4 °F 37.2 °F 31.8 °F 74% 29.79 in 10.0 mi ESE 3.5 mph - N/A   Clear
8:35 PM 39.2 °F - 31.8 °F 75% 29.79 in 10.0 mi Calm Calm - N/A   Clear
8:55 PM 39.4 °F - 31.6 °F 74% 29.82 in 10.0 mi Calm Calm - N/A   Clear
9:15 PM 39.6 °F - 31.8 °F 74% 29.81 in 10.0 mi Calm Calm - N/A   Clear
9:35 PM 39.4 °F - 32.0 °F 75% 29.80 in 10.0 mi Calm Calm - N/A   Light Drizzle
9:55 PM 38.8 °F - 32.7 °F 79% 29.79 in 10.0 mi Calm Calm - N/A Rain Light Rain
10:20 PM 37.8 °F - 34.2 °F 87% 29.77 in 10.0 mi Calm Calm - N/A Rain Light Rain
10:35 PM 37.6 °F - 34.7 °F 89% 29.76 in 7.0 mi Calm Calm - N/A Rain Rain
10:47 PM 37.4 °F - 35.6 °F 93% 29.74 in 7.0 mi Calm Calm - N/A Rain Rain
10:55 PM 37.4 °F - 35.1 °F 91% 29.74 in 7.0 mi Calm Calm - N/A Rain Light Rain
11:15 PM 37.4 °F - 35.2 °F 92% 29.75 in 10.0 mi Calm Calm - N/A Rain Rain
11:35 PM 37.4 °F - 35.2 °F 92% 29.74 in 7.0 mi Calm Calm - N/A Rain Rain
11:46 PM 37.4 °F - 35.6 °F 93% 29.73 in 10.0 mi Calm Calm - N/A   Drizzle
11:55 PM 37.4 °F - 35.8 °F 94% 29.72 in 10.0 mi Calm Calm - N/A   Light Drizzle